EW4963 Weather Reports


Display with metric or nautical units.
time (UTC)temp
F
wind
direction
speed
MPH
gust
MPH
rain 1hr
in
rain 24hr
in
rain mn
in
humidity
%
barometer
mb
20200221185248 42 338 3.0 7.0 0.00 0.00 0.00 44 1034.1
20200221184746 42 338 2.0 6.0 0.00 0.00 0.00 44 1035.1
20200221184246 42 303 2.0 6.0 0.00 0.00 0.00 42 1035.1
20200221183747 41 67 2.0 5.0 0.00 0.00 0.00 45 1035.1
20200221183247 41 250 3.0 7.0 0.00 0.00 0.00 46 1035.3
20200221182745 40 269 4.0 7.0 0.00 0.00 0.00 47 1035.3
20200221182244 40 269 4.0 7.0 0.00 0.00 0.00 46 1035.3
20200221181744 40 20 3.0 7.0 0.00 0.00 0.00 45 1035.5
20200221181239 41 16 3.0 6.0 0.00 0.00 0.00 46 1035.6
20200221180739 41 91 2.0 6.0 0.00 0.00 0.00 49 1035.5
20200221180238 41 299 2.0 5.0 0.00 0.00 0.00 51 1036.2
20200221175737 40 285 2.0 6.0 0.00 0.00 0.00 50 1036.2
20200221175237 40 23 2.0 6.0 0.00 0.00 0.00 50 1036.1
20200221174736 40 38 2.0 5.0 0.00 0.00 0.00 50 1036.1
20200221174231 40 328 3.0 7.0 0.00 0.00 0.00 56 1036.2
20200221173730 39 0 2.0 7.0 0.00 0.00 0.00 52 1036.1
20200221173230 39 319 2.0 6.0 0.00 0.00 0.00 53 1036.6
20200221172718 39 53 3.0 7.0 0.00 0.00 0.00 53 1036.6
20200221172209 38 136 3.0 7.0 0.00 0.00 0.00 55 1036.6
20200221171710 38 80 3.0 7.0 0.00 0.00 0.00 55 1036.5
20200221171213 38 0 3.0 6.0 0.00 0.00 0.00 56 1036.5
20200221170707 38 61 2.0 6.0 0.00 0.00 0.00 54 1036.5
20200221170206 38 40 1.0 6.0 0.00 0.00 0.00 55 1036.6
20200221165704 37 304 2.0 6.0 0.00 0.00 0.00 57 1036.6
20200221165204 36 319 3.0 8.0 0.00 0.00 0.00 56 1036.5
20200221164703 37 14 3.0 8.0 0.00 0.00 0.00 55 1036.5
20200221164203 36 331 3.0 7.0 0.00 0.00 0.00 58 1036.4
20200221163703 37 336 4.0 8.0 0.00 0.00 0.00 58 1036.5
20200221163204 35 319 4.0 8.0 0.00 0.00 0.00 58 1036.5
20200221162702 36 333 3.0 8.0 0.00 0.00 0.00 60 1036.5
20200221162159 35 331 3.0 8.0 0.00 0.00 0.00 61 1036.5
20200221161659 35 5 3.0 7.0 0.00 0.00 0.00 62 1036.4
20200221161200 34 293 4.0 8.0 0.00 0.00 0.00 66 1036.3
20200221160701 34 35 5.0 10.0 0.00 0.00 0.00 63 1036.3
20200221160200 34 40 5.0 10.0 0.00 0.00 0.00 64 1036.5
20200221155701 34 33 5.0 8.0 0.00 0.00 0.00 65 1036.5
20200221155154 33 74 5.0 10.0 0.00 0.00 0.00 64 1036.4
20200221154652 33 39 5.0 10.0 0.00 0.00 0.00 64 1036.6
20200221154151 33 92 5.0 10.0 0.00 0.00 0.00 67 1036.6
20200221153650 32 70 5.0 10.0 0.00 0.00 0.00 65 1036.5
20200221153149 33 44 4.0 9.0 0.00 0.00 0.00 66 1036.8
20200221152649 32 355 4.0 9.0 0.00 0.00 0.00 67 1036.8
20200221152150 32 49 4.0 9.0 0.00 0.00 0.00 67 1036.8
20200221151649 32 34 4.0 9.0 0.00 0.00 0.00 68 1036.9
20200221151148 32 34 4.0 8.0 0.00 0.00 0.00 68 1036.9
20200221150647 31 13 4.0 7.0 0.00 0.00 0.00 68 1036.9
20200221150148 31 59 3.0 6.0 0.00 0.00 0.00 70 1036.8
20200221145648 31 5 3.0 6.0 0.00 0.00 0.00 70 1036.8
20200221145147 31 67 3.0 7.0 0.00 0.00 0.00 72 1036.8
20200221144647 30 24 3.0 7.0 0.00 0.00 0.00 72 1036.8
20200221144147 30 41 2.0 6.0 0.00 0.00 0.00 73 1036.8
20200221143642 30 46 2.0 6.0 0.00 0.00 0.00 76 1036.8
20200221143143 29 33 2.0 5.0 0.00 0.00 0.00 78 1036.5
20200221142643 29 0 2.0 5.0 0.00 0.00 0.00 81 1036.4
20200221142144 28 302 2.0 6.0 0.00 0.00 0.00 80 1036.4
20200221141642 28 0 3.0 6.0 0.00 0.00 0.00 81 1036.1
20200221141131 28 355 2.0 6.0 0.00 0.00 0.00 82 1036.0
20200221140631 27 19 2.0 5.0 0.00 0.00 0.00 83 1036.0
20200221140130 27 5 2.0 7.0 0.00 0.00 0.00 83 1035.9
20200221135624 27 0 2.0 7.0 0.00 0.00 0.00 83 1035.9
20200221135121 26 5 2.0 5.0 0.00 0.00 0.00 84 1035.6
20200221134622 26 5 2.0 4.0 0.00 0.00 0.00 84 1035.6
20200221134121 26 5 1.0 4.0 0.00 0.00 0.00 84 1035.6
20200221133619 26 5 1.0 4.0 0.00 0.00 0.00 84 1035.3
20200221133121 26 10 1.0 5.0 0.00 0.00 0.00 83 1035.3
20200221132618 26 22 2.0 5.0 0.00 0.00 0.00 83 1035.3
20200221132119 26 10 2.0 4.0 0.00 0.00 0.00 83 1035.2
20200221131620 26 5 2.0 4.0 0.00 0.00 0.00 83 1035.2
20200221131116 26 17 2.0 5.0 0.00 0.00 0.00 83 1035.2
20200221130615 26 18 2.0 5.0 0.00 0.00 0.00 83 1035.3
20200221130116 27 0 1.0 5.0 0.00 0.00 0.00 84 1035.3
20200221125613 27 0 1.0 3.0 0.00 0.00 0.00 84 1035.3
20200221125110 28 0 1.0 3.0 0.00 0.00 0.00 84 1035.0
20200221124610 28 0 1.0 4.0 0.00 0.00 0.00 87 1035.0
20200221124110 27 0 1.0 5.0 0.00 0.00 0.00 84 1034.9
20200221123602 26 355 1.0 5.0 0.00 0.00 0.00 82 1034.8
20200221123054 27 9 1.0 5.0 0.00 0.00 0.00 82 1034.8
20200221122550 27 0 2.0 5.0 0.00 0.00 0.00 82 1034.8
20200221122048 27 5 3.0 8.0 0.00 0.00 0.00 82 1034.4
20200221121548 27 11 3.0 8.0 0.00 0.00 0.00 82 1034.4
20200221121046 27 317 3.0 6.0 0.00 0.01 0.00 82 1034.4
20200221120546 27 34 3.0 7.0 0.00 0.01 0.00 82 1034.5
20200221120046 27 0 3.0 7.0 0.00 0.01 0.00 82 1034.6
20200221115529 27 14 1.0 5.0 0.00 0.01 0.00 82 1034.6
20200221115026 27 331 1.0 5.0 0.00 0.01 0.00 82 1034.7
20200221114523 27 327 2.0 5.0 0.00 0.01 0.00 82 1034.8
20200221114020 27 308 2.0 6.0 0.00 0.01 0.00 81 1034.8
20200221113517 27 323 1.0 6.0 0.00 0.01 0.00 81 1034.9
20200221113009 28 330 1.0 5.0 0.00 0.01 0.00 82 1034.9
20200221112506 28 336 2.0 6.0 0.00 0.01 0.00 82 1034.9
20200221112007 28 326 2.0 6.0 0.00 0.01 0.00 82 1034.4
20200221111508 28 324 2.0 7.0 0.00 0.01 0.00 82 1034.4
20200221111005 28 321 2.0 7.0 0.00 0.01 0.00 82 1034.4
20200221110504 28 5 2.0 8.0 0.00 0.01 0.00 82 1034.4
20200221110004 28 24 2.0 8.0 0.00 0.01 0.00 81 1034.4
20200221105504 28 319 2.0 6.0 0.00 0.01 0.00 81 1034.4
20200221105001 28 19 2.0 6.0 0.00 0.01 0.00 81 1034.2
20200221104501 28 0 2.0 6.0 0.00 0.01 0.00 81 1034.2
20200221103957 29 326 2.0 7.0 0.00 0.01 0.00 81 1034.3
20200221103456 29 339 2.0 7.0 0.00 0.02 0.00 81 1034.4
20200221102957 29 329 2.0 5.0 0.00 0.02 0.00 82 1034.4
20200221102455 30 325 1.0 4.0 0.00 0.03 0.00 83 1034.4
20200221101954 29 5 1.0 5.0 0.00 0.03 0.00 82 1034.3
20200221101453 29 30 1.0 5.0 0.00 0.03 0.00 80 1034.3
20200221100953 29 334 1.0 4.0 0.00 0.04 0.00 80 1034.3
20200221100444 29 291 1.0 4.0 0.00 0.04 0.00 80 1034.6
20200221095945 29 288 1.0 5.0 0.00 0.04 0.00 80 1034.6
20200221095445 29 36 2.0 6.0 0.00 0.04 0.00 80 1034.6
20200221094946 30 318 2.0 6.0 0.00 0.05 0.00 80 1034.6
20200221094440 30 333 1.0 5.0 0.00 0.05 0.00 81 1034.6
20200221093933 30 319 1.0 5.0 0.00 0.05 0.00 81 1034.6
20200221093434 30 323 2.0 5.0 0.00 0.05 0.00 80 1034.5
20200221092928 30 5 2.0 8.0 0.00 0.05 0.00 80 1034.5
20200221092430 30 14 3.0 8.0 0.00 0.05 0.00 79 1034.5
20200221091419 30 26 4.0 8.0 0.00 0.06 0.00 79 1034.5
20200221090918 30 0 3.0 8.0 0.00 0.06 0.00 79 1034.5
20200221090419 30 25 3.0 7.0 0.00 0.06 0.00 79 1034.6
20200221085920 30 338 2.0 8.0 0.00 0.06 0.00 80 1034.7
20200221085418 31 344 2.0 8.0 0.00 0.06 0.00 80 1034.7
20200221084921 31 336 3.0 9.0 0.00 0.07 0.00 80 1034.8
20200221084416 31 319 3.0 9.0 0.00 0.07 0.00 80 1034.8
20200221084208 31 350 2.0 8.0 0.00 0.07 0.00 80 1034.8
20200221083701 31 326 2.0 6.0 0.00 0.08 0.00 80 1034.9
20200221082916 31 351 3.0 7.0 0.00 0.08 0.00 79 1034.9
20200221082702 31 330 3.0 7.0 0.00 0.08 0.00 79 1034.9
20200221082205 31 331 2.0 7.0 0.00 0.08 0.00 79 1035.0
20200221081410 31 306 2.0 5.0 0.00 0.08 0.00 79 1035.0
20200221080911 31 355 3.0 6.0 0.00 0.08 0.00 79 1035.0
20200221080411 31 333 2.0 6.0 0.00 0.08 0.00 79 1034.9
20200221075910 32 325 2.0 7.0 0.00 0.08 0.00 80 1034.9
20200221075411 32 327 3.0 7.0 0.00 0.08 0.00 80 1034.9
20200221074905 32 18 3.0 8.0 0.00 0.08 0.00 80 1034.8
20200221074357 32 341 2.0 8.0 0.00 0.08 0.00 79 1034.8
20200221073858 32 5 3.0 8.0 0.00 0.09 0.00 79 1034.8
20200221073358 32 350 3.0 8.0 0.00 0.09 0.00 79 1034.8
20200221072855 32 310 3.0 8.0 0.00 0.09 0.00 79 1034.8
20200221072354 32 341 3.0 8.0 0.00 0.09 0.00 79 1034.8
20200221071854 32 318 2.0 6.0 0.00 0.10 0.00 79 1034.8
20200221071354 32 331 3.0 9.0 0.00 0.10 0.00 79 1034.8
20200221070853 32 9 4.0 10.0 0.00 0.10 0.00 79 1034.8
20200221070353 32 19 4.0 10.0 0.00 0.10 0.00 79 1034.8
20200221065850 33 355 4.0 8.0 0.00 0.10 0.00 79 1034.8
20200221065350 33 0 4.0 7.0 0.00 0.10 0.00 79 1034.8
20200221064850 33 346 3.0 7.0 0.00 0.10 0.00 79 1034.8
20200221064350 33 0 3.0 7.0 0.00 0.10 0.00 79 1034.8
20200221063851 33 30 3.0 6.0 0.00 0.10 0.00 79 1034.8
20200221063351 33 312 3.0 7.0 0.00 0.10 0.00 79 1034.9
20200221062851 33 315 3.0 7.0 0.00 0.11 0.00 79 1034.9
20200221062351 33 13 3.0 6.0 0.00 0.11 0.00 79 1034.9
20200221061851 33 19 4.0 8.0 0.00 0.11 0.00 78 1034.8
20200221061342 33 346 4.0 8.0 0.00 0.11 0.00 78 1034.8
20200221060840 33 28 3.0 7.0 0.00 0.12 0.00 78 1034.8
20200221060338 33 355 3.0 7.0 0.00 0.12 0.00 78 1035.0
20200221055838 33 330 3.0 7.0 0.00 0.12 0.12 78 1035.0
20200221055340 34 15 3.0 7.0 0.00 0.12 0.12 78 1035.0
20200221054837 34 314 3.0 7.0 0.00 0.12 0.12 78 1034.9
20200221054335 34 0 3.0 8.0 0.00 0.12 0.12 78 1034.9
20200221053834 34 350 3.0 8.0 0.00 0.12 0.12 78 1034.9
20200221053335 34 310 3.0 8.0 0.00 0.12 0.12 78 1034.9
20200221052832 34 24 3.0 8.0 0.00 0.12 0.12 78 1034.9
20200221052332 34 355 3.0 10.0 0.00 0.12 0.12 78 1034.9
20200221051834 34 325 3.0 10.0 0.00 0.12 0.12 78 1035.0
20200221051324 34 329 3.0 7.0 0.00 0.12 0.12 78 1035.0
20200221050813 34 0 3.0 8.0 0.00 0.12 0.12 77 1035.0
20200221050310 34 327 3.0 8.0 0.00 0.12 0.12 77 1034.9
20200221045809 34 313 3.0 7.0 0.00 0.12 0.12 77 1034.9
20200221045307 35 334 3.0 6.0 0.00 0.12 0.12 77 1034.9
20200221044805 35 336 3.0 6.0 0.00 0.12 0.12 77 1034.9
20200221044305 35 355 3.0 7.0 0.00 0.12 0.12 77 1034.9
20200221043801 35 339 3.0 7.0 0.00 0.12 0.12 78 1034.9
20200221043301 35 24 3.0 7.0 0.00 0.12 0.12 78 1034.9
20200221042758 35 343 2.0 7.0 0.00 0.12 0.12 77 1034.9
20200221042259 35 333 2.0 6.0 0.00 0.12 0.12 76 1034.9
20200221041759 36 19 3.0 6.0 0.00 0.13 0.12 76 1035.1
20200221041257 36 331 3.0 6.0 0.00 0.14 0.12 76 1035.1
20200221040757 36 57 3.0 6.0 0.00 0.14 0.12 76 1035.1
20200221040257 36 349 3.0 6.0 0.00 0.14 0.12 76 1035.0
20200221035753 36 20 3.0 7.0 0.00 0.15 0.12 75 1035.0
20200221035252 36 341 3.0 7.0 0.00 0.15 0.12 75 1035.0
20200221034752 36 317 2.0 7.0 0.00 0.15 0.12 75 1034.9
20200221034252 36 355 2.0 7.0 0.00 0.16 0.12 75 1034.9
20200221033754 36 13 2.0 7.0 0.00 0.19 0.12 75 1034.9
20200221033253 37 347 2.0 7.0 0.00 0.19 0.12 75 1034.6
20200221032749 37 26 3.0 8.0 0.00 0.19 0.12 75 1034.6
20200221032249 37 14 3.0 8.0 0.00 0.19 0.12 75 1034.6
20200221031747 37 355 3.0 6.0 0.00 0.19 0.12 75 1034.7
20200221031250 37 33 2.0 6.0 0.00 0.19 0.12 74 1034.7
20200221030747 37 346 2.0 6.0 0.00 0.19 0.12 74 1034.7
20200221030247 37 0 2.0 6.0 0.00 0.19 0.12 74 1034.5
20200221025741 37 21 2.0 6.0 0.00 0.19 0.12 74 1034.5
20200221025241 38 0 2.0 7.0 0.00 0.19 0.12 74 1034.5
20200221024741 38 321 3.0 7.0 0.00 0.19 0.12 74 1034.3
20200221024241 38 29 3.0 8.0 0.00 0.19 0.12 74 1034.3
20200221023739 38 355 4.0 8.0 0.00 0.19 0.12 74 1034.3
20200221023238 38 31 4.0 8.0 0.00 0.19 0.12 74 1034.3
20200221022738 38 0 4.0 9.0 0.00 0.19 0.12 74 1034.3
20200221022237 38 329 3.0 9.0 0.00 0.19 0.12 73 1034.3
20200221021736 38 14 3.0 10.0 0.00 0.19 0.12 74 1034.2
20200221021236 38 294 3.0 10.0 0.00 0.19 0.12 74 1034.2
20200221020736 38 338 2.0 7.0 0.00 0.19 0.12 74 1034.2
20200221020237 38 313 2.0 7.0 0.00 0.19 0.12 73 1034.1
20200221015737 39 17 2.0 8.0 0.00 0.19 0.12 73 1034.1
20200221015236 39 334 1.0 8.0 0.00 0.19 0.12 72 1034.1
20200221014738 39 355 1.0 4.0 0.00 0.19 0.12 72 1033.8
20200221014232 39 355 1.0 4.0 0.00 0.19 0.12 72 1033.8
20200221013723 39 346 1.0 5.0 0.00 0.19 0.12 71 1033.8
20200221013222 39 355 2.0 6.0 0.00 0.19 0.12 71 1033.5
20200221012721 39 9 2.0 8.0 0.00 0.19 0.12 71 1033.5
20200221012219 40 338 2.0 8.0 0.00 0.19 0.12 71 1033.5
20200221011716 40 19 2.0 6.0 0.00 0.19 0.12 70 1033.2
20200221011212 40 5 3.0 7.0 0.00 0.19 0.12 70 1033.2
20200221010712 40 18 3.0 7.0 0.00 0.19 0.12 70 1033.3
20200221010209 40 332 3.0 6.0 0.00 0.19 0.12 70 1033.2
20200221005709 40 9 3.0 7.0 0.00 0.19 0.12 71 1033.2
20200221005209 40 348 3.0 10.0 0.00 0.19 0.12 70 1033.2
20200221004710 40 336 3.0 10.0 0.00 0.19 0.12 70 1033.0
20200221004211 40 21 4.0 9.0 0.00 0.19 0.12 70 1033.0
20200221003712 41 15 4.0 9.0 0.00 0.19 0.12 70 1033.0
20200221003201 41 291 4.0 9.0 0.00 0.19 0.12 70 1032.7
20200221002700 41 0 3.0 9.0 0.00 0.19 0.12 70 1032.7
20200221002153 41 345 3.0 9.0 0.00 0.19 0.12 70 1032.7
20200221001649 41 0 4.0 11.0 0.00 0.19 0.12 70 1032.8
20200221001147 41 42 4.0 11.0 0.00 0.19 0.12 70 1032.8
20200221000641 42 36 4.0 10.0 0.00 0.19 0.12 70 1032.8
20200221000135 42 5 4.0 9.0 0.00 0.19 0.12 69 1032.6
20200220235635 42 314 4.0 14.0 0.00 0.19 0.12 69 1032.6
20200220235130 42 24 5.0 15.0 0.00 0.19 0.12 68 1032.6
20200220234629 42 306 5.0 15.0 0.00 0.19 0.12 68 1032.5
20200220234131 43 292 6.0 15.0 0.00 0.19 0.12 67 1032.5
20200220233628 43 0 7.0 15.0 0.00 0.19 0.12 67 1032.6
20200220233125 43 53 6.0 14.0 0.00 0.19 0.12 68 1032.3
20200220232626 43 40 5.0 11.0 0.00 0.19 0.12 68 1032.3
20200220232126 43 17 5.0 9.0 0.00 0.19 0.12 70 1032.3
20200220231627 43 17 5.0 14.0 0.00 0.19 0.12 68 1032.1
20200220231125 43 355 7.0 16.0 0.00 0.19 0.12 68 1032.1
20200220230623 43 46 8.0 19.0 0.00 0.19 0.12 67 1032.1
20200220230123 44 38 7.0 19.0 0.00 0.19 0.12 67 1032.0
20200220225622 44 336 7.0 16.0 0.00 0.19 0.12 68 1032.0
20200220225122 44 355 7.0 16.0 0.00 0.19 0.12 67 1032.0
20200220224620 44 269 7.0 15.0 0.00 0.19 0.12 67 1031.7
20200220224120 44 15 7.0 15.0 0.00 0.19 0.12 67 1031.7
20200220223619 44 56 6.0 13.0 0.00 0.19 0.12 67 1031.8
20200220223119 44 341 6.0 14.0 0.00 0.19 0.12 67 1031.8
20200220222619 44 319 6.0 16.0 0.00 0.19 0.12 68 1031.8
20200220222120 44 10 6.0 16.0 0.00 0.19 0.12 68 1031.7
20200220221620 44 25 7.0 15.0 0.00 0.19 0.12 68 1031.7
20200220221120 44 13 7.0 15.0 0.00 0.19 0.12 68 1031.7
20200220220619 45 46 7.0 14.0 0.00 0.19 0.12 68 1031.6
20200220220120 45 26 7.0 14.0 0.00 0.19 0.12 68 1031.6
20200220215621 45 41 6.0 15.0 0.00 0.19 0.12 68 1031.6
20200220215120 45 34 7.0 15.0 0.00 0.19 0.12 68 1031.6
20200220214619 45 36 7.0 14.0 0.00 0.19 0.12 69 1031.6
20200220214119 45 10 8.0 18.0 0.00 0.19 0.12 68 1031.6
20200220213622 45 14 7.0 18.0 0.00 0.19 0.12 67 1031.3
20200220213119 45 350 7.0 18.0 0.00 0.19 0.12 67 1031.3
20200220212619 46 34 7.0 18.0 0.00 0.19 0.12 67 1031.3
20200220212118 46 261 7.0 14.0 0.00 0.19 0.12 67 1031.3
20200220211619 46 0 7.0 15.0 0.00 0.19 0.12 68 1031.3
20200220211117 46 5 7.0 19.0 0.00 0.19 0.12 66 1031.3
20200220210616 47 29 7.0 19.0 0.00 0.19 0.12 66 1031.1
20200220210115 47 10 7.0 14.0 0.00 0.19 0.12 67 1031.1
20200220205615 47 40 7.0 14.0 0.00 0.19 0.12 66 1031.1
20200220205118 47 30 7.0 16.0 0.00 0.19 0.12 66 1030.7
20200220204613 47 15 7.0 16.0 0.00 0.19 0.12 66 1030.7
20200220204114 47 38 8.0 18.0 0.00 0.19 0.12 66 1030.7
20200220203613 48 333 8.0 18.0 0.00 0.19 0.12 65 1030.7
20200220203114 48 323 7.0 14.0 0.00 0.19 0.12 65 1030.7
20200220202613 48 28 7.0 14.0 0.00 0.19 0.12 65 1030.7
20200220202113 48 32 7.0 18.0 0.00 0.19 0.12 65 1030.7
20200220201614 49 28 7.0 18.0 0.00 0.19 0.12 64 1030.7
20200220201109 48 326 7.0 15.0 0.00 0.19 0.12 65 1030.7
20200220200606 49 12 7.0 15.0 0.00 0.19 0.12 64 1030.6
20200220200107 49 15 7.0 15.0 0.00 0.19 0.12 64 1030.6
20200220195606 49 337 7.0 21.0 0.00 0.19 0.12 64 1030.7
20200220195106 49 289 8.0 21.0 0.00 0.19 0.12 63 1030.5
20200220194606 49 265 7.0 16.0 0.00 0.19 0.12 64 1030.5
20200220194105 50 334 7.0 15.0 0.00 0.19 0.12 63 1030.5
20200220193604 50 355 7.0 15.0 0.00 0.19 0.12 63 1030.3
20200220193104 51 61 7.0 14.0 0.00 0.19 0.12 62 1030.3
20200220192603 51 29 7.0 16.0 0.00 0.19 0.12 61 1030.4
20200220192101 51 301 7.0 16.0 0.00 0.19 0.12 63 1030.3
20200220191602 51 346 7.0 13.0 0.00 0.19 0.12 62 1030.3
20200220191100 50 24 7.0 12.0 0.00 0.19 0.12 63 1030.3
20200220190601 51 28 8.0 14.0 0.00 0.19 0.12 62 1030.4
20200220190100 51 299 8.0 14.0 0.00 0.19 0.12 61 1030.5
20200220185557 51 348 7.0 12.0 0.00 0.19 0.12 62 1030.5